Regional Weather Roundup
Issued by NWS Kansas City/Pleasant Hill, MO

Home | Current Version | Previous Version | Text Only | Print | Product List | Glossary On
Versions: 1 2 3 4 5 6 7 8 9 10 11 12 13 14 15 16 17 18 19 20 21 22 23 24 25 26 27 28 29 30 31 32 33 34 35 36 37 38 39 40 41 42 43 44 45 46 47 48 49 50
000
ASUS43 KEAX 271711
RWREAX

WEATHER ROUNDUP FOR EASTERN KANSAS AND NORTHWEST MISSOURI
NATIONAL WEATHER SERVICE KANSAS CITY/PLEASANT HILL MO
1100 AM CST SAT DEC 27 2014

KSZ040-057-103>105-MOZ028-029-037-043-271800-
...KANSAS CITY METROPOLITAN AREA...

CITY           SKY/WX    TMP DP  RH WIND       PRES   REMARKS
K.C. INTL      CLOUDY    29  23  78 NW8       30.26R WCI  21
K.C. DOWNTOWN  CLOUDY    32  23  69 NW13      30.26R WCI  22
LEES SUMMIT    CLOUDY    32  25  75 W10       30.26R WCI  24
OLATHE - IXD   CLOUDY    30  24  78 W9        30.28R WCI  22
OLATHE - OJC   CLOUDY    30  24  78 VRB7      30.26R WCI  23
LAWRENCE       CLOUDY    30  22  72 NW12      30.30R WCI  20

$$

MOZ001>008-011>017-020>025-030>033-038>040-044>046-053-054-271800-
...NORTHERN AND CENTRAL MISSOURI...

CITY           SKY/WX    TMP DP  RH WIND       PRES   REMARKS
ST. JOSEPH     CLOUDY    29  22  75 NW13      30.27F WCI  19
MOSBY            N/A     32  25  74 W12G18    30.26R WCI  23
WARRENSBURG    CLOUDY    34  28  80 W7        30.25F WCI  28
WHITEMAN AFB   PTSUNNY   35  29  80 NW10      30.24R WCI  27
CLINTON        LGT SNOW  34  32  93 W5        30.26F WCI  30
SEDALIA        CLOUDY    36  30  79 W10       30.25R WCI  28
WARSAW         NOT AVBL
MARSHALL       CLOUDY    37  34  87 W9        30.21F WCI  31
CHILLICOTHE      N/A     32  26  78 W12G20    30.25S WCI  23
MOBERLY        CLOUDY    36  28  75 W13       30.17F WCI  27
KIRKSVILLE     CLOUDY    34  30  85 W10       30.18S WCI  26

$$

MOZ041-047>049-056>058-063>065-088>090-097-271800-
...EASTERN AND SOUTHERN MISSOURI...

CITY           SKY/WX    TMP DP  RH WIND       PRES   REMARKS
ST. LOUIS INTL CLOUDY    43  37  79 W16       30.18R
SPIRIT OF STL  CLOUDY    42  36  79 NW10      30.18S
COLUMBIA       FLURRIES  36  32  85 W8        30.19F WCI  30
JEFFERSON CITY LGT RAIN  39  31  72 W8        30.21F WCI  33
MEXICO         CLOUDY    39  36  87 W12       30.18S WCI  32
HANNIBAL       LGT SNOW  37  32  81 W9        30.15F WCI  31
ROLLA          LGT RAIN  38  35  89 W7        30.17F FOG     WCI  33
LEBANON        LGT SNOW  36  32  87 W9        30.24R WCI  29
OSAGE BEACH    CLOUDY    37  30  75 W7        30.22F WCI  32
SPRINGFIELD    LGT SNOW  33  31  92 NW7       30.24R FOG     WCI  27
BRANSON        CLOUDY    36  32  87 NW14      30.25R WCI  27
NEVADA         FLURRIES  32  28  86 W6        30.29S WCI  26
JOPLIN         LGT SNOW  31  30  96 N10       30.29F FOG     WCI  22
WEST PLAINS    CLOUDY    41  37  86 NW12      30.19F WCI  34

$$

IAZ060-094-KSZ022-034>040-054-083-096-NEZ052-066-093-271800-
...KANSAS...SOUTHEAST NEBRASKA AND IOWA...

CITY           SKY/WX    TMP DP  RH WIND       PRES   REMARKS
TOPEKA         PTSUNNY   31  21  66 W9        30.30S WCI  23
MANHATTAN      SUNNY     29  17  61 N8        30.32S WCI  21
EMPORIA        MOSUNNY   29  20  69 NW12G21   30.30R WCI  19
CHANUTE        CLOUDY    31  23  72 NW13      30.32R WCI  21
WICHITA        MOSUNNY   31  15  52 N14G21    30.34R WCI  21
OMAHA          PTSUNNY   24  18  77 NW13      30.28S WCI  12
LINCOLN        SUNNY     23  16  74 NW10      30.30R WCI  12
FALLS CITY     CLOUDY    26  19  74 NW10      30.27S WCI  16
LAMONI         PTSUNNY   29  22  75 NW12      30.19S WCI  19
DES MOINES     CLOUDY    28  22  78 NW13      30.21R WCI  17

$$



USA.gov is the U.S. government's official web portal to all federal, state and local government web resources and services.